Location: Bannatyne
(13.0833°N, 59.5333°W)
Time: 18:45:43
(UTC+00:00)

Vanguard 2 Rocket - Pass Details

Date: 21 January 2020
Orbit: 554 x 3326 km, 32.9° (Epoch: 02 April)

Event Time Altitude Azimuth Distance (km) Brightness Sun altitude
Rises 06:49:12 0° 230° (SW) 2,900 - -51.1°
Reaches altitude 10° 06:51:37 10° 226° (SW) 1,875 - -50.6°
Maximum altitude 06:55:32 57° 146° (SE) 648 - -49.7°
Drops below altitude 10° 06:59:38 10° 67° (ENE) 1,950 - -48.7°
Sets 07:02:11 0° 63° (ENE) 3,032 - -48.1°
